Tracking 22993 objects as of 12-May-2021
HD Live streaming from Space Station
objects crossing your sky now

TDRS 10

Track TDRS 10 now!
TDRS 10 is classified as:


NORAD ID: 27566
Int'l Code: 2002-055A
Perigee: 35,744.7 km
Apogee: 35,839.8 km
Inclination: 7.5 °
Period: 1,436.0 minutes
Semi major axis: 42163 km
RCS: 5.0118 m2 (large)
Launch date: December 5, 2002
Source: United States (US)
Launch site: AIR FORCE EASTERN TEST RANGE (AFETR)

Tracking and communications with space shuttle, other missions.
aabbcc
Your satellite tracking list
Your tracking list is empty




NASA's NSSDC Master Catalog

Two Line Element Set (TLE):
1 27566U 02055A   21131.37075723  .00000096  00000-0  00000+0 0  9994
2 27566   7.4829  52.0709 0011279 322.8437 176.8706  1.00277194 67548
Source of the keplerian elements: AFSPC